Weather History for KSLH - November, 2012

Change the Weather History Date:

Monday, November 5, 2012

  Actual Average (KPLN) Record (KPLN)
Temperature  
Mean Temperature 32 °F -  
Max Temperature 34 °F 46 °F 70 °F (1978)
Min Temperature 28 °F 29 °F 9 °F (1966)
Degree Days  
Heating Degree Days 34    
Moisture  
Dew Point 22 °F    
Average Humidity 68    
Maximum Humidity 79    
Minimum Humidity 60    
Precipitation  
Precipitation 0.00 in - - ()
Sea Level Pressure  
Sea Level Pressure 30.23 in    
Wind  
Wind Speed 6 mph (East)    
Max Wind Speed 12 mph    
Max Gust Speed 18 mph    
Visibility 10 miles    
Events      
Averages and records for this station are not official NWS values.
T = Trace of Precipitation, MM = Missing Value Source: NWS Daily Summary

Daily Weather History Graph

Daily Weather History Graph

Search for Another Location

Airport or City:

Trip Planner

Search our weather history database for the weather conditions in past years. The results will help you decide how hot, cold, wet, or windy it might be!

Date:

Astronomy

Nov. 05, 2012 Rise Set
Actual Time 7:24 AM EST 5:18 PM EST
Civil Twilight 6:52 AM EST 5:49 PM EST
Nautical Twilight 6:17 AM EST 6:25 PM EST
Astronomical Twilight 5:42 AM EST 6:59 PM EST
Moon 10:55 PM EST (11/5) 12:43 PM EST (11/5)
Length of Visible Light 10h 57m
Length of Day
9h 54m
Waning Gibbous, 63% of the Moon is Illuminated
Nov 5
Waning Gibbous
Nov 6
Last Quarter
Nov 13
New
Nov 20
First Quarter
Nov 28
Full

Hourly Weather History & Observations

Time (EST) Temp. Windchill Dew Point Humidity Pressure Visibility Wind Dir Wind Speed Gust Speed Precip Events Conditions
12:15 AM 32.0 °F 23.0 °F 26.2 °F 79% 30.23 in 10.0 mi NNE 11.5 mph 18.4 mph N/A   Overcast
12:35 AM 32.0 °F 23.6 °F 26.2 °F 79% 30.23 in 10.0 mi NNE 10.4 mph - N/A   Overcast
12:55 AM 32.0 °F 23.6 °F 26.1 °F 79% 30.23 in 10.0 mi NE 10.4 mph 16.1 mph N/A   Overcast
1:15 AM 31.6 °F 23.7 °F 25.7 °F 79% 30.23 in 10.0 mi NE 9.2 mph - N/A   Overcast
1:36 AM 31.6 °F 24.4 °F 25.7 °F 79% 30.23 in 10.0 mi NNE 8.1 mph - N/A   Overcast
1:55 AM 31.5 °F 24.9 °F 25.5 °F 79% 30.23 in 10.0 mi NNE 6.9 mph - N/A   Overcast
2:15 AM 31.1 °F 23.1 °F 24.8 °F 77% 30.23 in 10.0 mi NNE 9.2 mph - N/A   Overcast
2:36 AM 30.9 °F 23.5 °F 23.9 °F 75% 30.24 in 10.0 mi NNE 8.1 mph - N/A   Overcast
2:55 AM 30.9 °F 25.2 °F 23.9 °F 75% 30.24 in 10.0 mi NNE 5.8 mph - N/A   Overcast
3:15 AM 30.4 °F 22.9 °F 23.5 °F 76% 30.24 in 10.0 mi NNE 8.1 mph - N/A   Overcast
3:35 AM 30.2 °F 22.6 °F 23.0 °F 75% 30.24 in 10.0 mi North 8.1 mph - N/A   Overcast
3:55 AM 30.2 °F 22.6 °F 23.0 °F 75% 30.24 in 10.0 mi North 8.1 mph - N/A   Overcast
4:15 AM 30.4 °F 25.6 °F 23.0 °F 74% 30.24 in 10.0 mi North 4.6 mph - N/A   Overcast
4:35 AM 30.6 °F 24.7 °F 23.0 °F 74% 30.24 in 10.0 mi North 5.8 mph - N/A   Overcast
4:55 AM 30.9 °F 25.2 °F 23.2 °F 73% 30.24 in 10.0 mi North 5.8 mph - N/A   Overcast
5:15 AM 31.1 °F 25.4 °F 23.4 °F 73% 30.24 in 10.0 mi North 5.8 mph - N/A   Overcast
5:35 AM 31.5 °F 24.9 °F 23.5 °F 73% 30.24 in 10.0 mi NNE 6.9 mph - N/A   Overcast
5:55 AM 31.6 °F 25.1 °F 22.6 °F 69% 30.24 in 10.0 mi NE 6.9 mph - N/A   Overcast
6:15 AM 31.6 °F 25.1 °F 22.1 °F 68% 30.24 in 10.0 mi NE 6.9 mph - N/A   Overcast
6:35 AM 31.5 °F 26.8 °F 21.4 °F 66% 30.25 in 10.0 mi NNE 4.6 mph - N/A   Overcast
6:55 AM 31.5 °F 24.9 °F 20.1 °F 63% 30.25 in 10.0 mi ENE 6.9 mph - N/A   Overcast
7:16 AM 31.1 °F 25.4 °F 20.3 °F 64% 30.25 in 10.0 mi East 5.8 mph - N/A   Overcast
7:35 AM 31.5 °F 25.8 °F 20.3 °F 63% 30.26 in 10.0 mi East 5.8 mph - N/A   Overcast
7:55 AM 31.1 °F 25.4 °F 19.4 °F 62% 30.26 in 10.0 mi East 5.8 mph - N/A   Overcast
8:16 AM 31.5 °F 28.1 °F 19.4 °F 61% 30.26 in 10.0 mi East 3.5 mph - N/A   Overcast
8:35 AM 31.5 °F - 19.6 °F 62% 30.26 in 10.0 mi Calm Calm - N/A   Overcast
8:56 AM 31.8 °F 28.5 °F 20.1 °F 62% 30.26 in 10.0 mi NE 3.5 mph - N/A   Overcast
9:15 AM 32.0 °F 28.7 °F 20.5 °F 63% 30.26 in 10.0 mi SE 3.5 mph - N/A   Overcast
9:35 AM 32.0 °F 27.5 °F 21.6 °F 65% 30.26 in 10.0 mi SE 4.6 mph - N/A   Overcast
9:55 AM 32.0 °F - 21.4 °F 65% 30.26 in 10.0 mi Calm Calm - N/A   Overcast
10:15 AM 32.4 °F 29.1 °F 22.1 °F 66% 30.26 in 10.0 mi East 3.5 mph - N/A   Overcast
10:35 AM 32.9 °F 28.5 °F 22.8 °F 66% 30.27 in 10.0 mi ESE 4.6 mph - N/A   Overcast
10:55 AM 33.1 °F 26.9 °F 22.6 °F 66% 30.27 in 10.0 mi ESE 6.9 mph - N/A   Overcast
11:15 AM 33.1 °F 30.0 °F 22.1 °F 64% 30.27 in 10.0 mi SE 3.5 mph - N/A   Overcast
11:35 AM 33.3 °F 28.9 °F 21.9 °F 63% 30.26 in 10.0 mi ENE 4.6 mph - N/A   Overcast
11:56 AM 33.3 °F 27.9 °F 22.6 °F 65% 30.26 in 10.0 mi East 5.8 mph - N/A   Overcast
12:15 PM 33.4 °F 28.1 °F 22.5 °F 64% 30.26 in 10.0 mi ENE 5.8 mph - N/A   Overcast
12:35 PM 33.8 °F 28.6 °F 22.8 °F 64% 30.25 in 10.0 mi ESE 5.8 mph - N/A   Overcast
12:55 PM 33.8 °F - 21.7 °F 61% 30.24 in 10.0 mi Calm Calm - N/A   Overcast
1:15 PM 33.8 °F 28.6 °F 22.1 °F 62% 30.23 in 10.0 mi SE 5.8 mph - N/A   Overcast
1:35 PM 34.0 °F 28.8 °F 22.1 °F 62% 30.23 in 10.0 mi SE 5.8 mph - N/A   Overcast
1:55 PM 34.0 °F 28.8 °F 21.9 °F 61% 30.23 in 10.0 mi ESE 5.8 mph - N/A   Overcast
2:15 PM 33.8 °F - 21.7 °F 61% 30.22 in 10.0 mi Calm Calm - N/A   Overcast
2:35 PM 34.2 °F 31.2 °F 22.3 °F 62% 30.22 in 10.0 mi SE 3.5 mph - N/A   Overcast
2:55 PM 34.0 °F - 21.2 °F 60% 30.22 in 10.0 mi Calm Calm - N/A   Overcast
3:15 PM 33.8 °F 29.6 °F 22.3 °F 63% 30.21 in 10.0 mi SE 4.6 mph - N/A   Overcast
3:35 PM 33.6 °F - 22.1 °F 63% 30.22 in 10.0 mi Calm Calm - N/A   Overcast
3:55 PM 33.8 °F - 22.3 °F 63% 30.22 in 10.0 mi Calm Calm - N/A   Overcast
4:15 PM 33.4 °F - 21.7 °F 62% 30.21 in 10.0 mi Calm Calm - N/A   Overcast
4:35 PM 33.4 °F 30.4 °F 21.6 °F 62% 30.21 in 10.0 mi East 3.5 mph - N/A   Overcast
4:55 PM 33.3 °F - 21.2 °F 61% 30.20 in 10.0 mi Calm Calm - N/A   Overcast
5:15 PM 33.1 °F 30.0 °F 21.6 °F 63% 30.20 in 10.0 mi SSE 3.5 mph - N/A   Overcast
5:35 PM 32.7 °F 28.3 °F 21.4 °F 63% 30.20 in 10.0 mi SSE 4.6 mph - N/A   Overcast
5:55 PM 32.4 °F 29.1 °F 21.0 °F 63% 30.20 in 10.0 mi South 3.5 mph - N/A   Overcast
6:16 PM 32.4 °F 29.1 °F 20.5 °F 62% 30.20 in 10.0 mi SSE 3.5 mph - N/A   Overcast
6:35 PM 32.2 °F 28.9 °F 21.0 °F 63% 30.21 in 10.0 mi South 3.5 mph - N/A   Overcast
6:55 PM 32.2 °F 27.7 °F 20.3 °F 62% 30.20 in 10.0 mi South 4.6 mph - N/A   Overcast
7:16 PM 32.4 °F - 19.8 °F 60% 30.21 in 10.0 mi Calm Calm - N/A   Overcast
7:35 PM 32.4 °F - 20.1 °F 61% 30.20 in 10.0 mi Calm Calm - N/A   Overcast
7:55 PM 32.2 °F - 20.5 °F 62% 30.20 in 10.0 mi Calm Calm - N/A   Overcast
8:15 PM 32.0 °F 28.7 °F 21.6 °F 65% 30.20 in 10.0 mi SE 3.5 mph - N/A   Overcast
8:35 PM 30.2 °F 26.7 °F 21.2 °F 69% 30.19 in 10.0 mi SE 3.5 mph - N/A   Mostly Cloudy
8:55 PM 29.7 °F 26.1 °F 21.6 °F 72% 30.19 in 10.0 mi SE 3.5 mph - N/A   Overcast
9:15 PM 30.2 °F - 21.4 °F 70% 30.19 in 10.0 mi Calm Calm - N/A   Overcast
9:35 PM 30.6 °F - 21.4 °F 69% 30.19 in 10.0 mi Calm Calm - N/A   Overcast
9:55 PM 30.2 °F 26.7 °F 22.1 °F 72% 30.18 in 10.0 mi SE 3.5 mph - N/A   Overcast
10:15 PM 29.7 °F 26.1 °F 22.1 °F 73% 30.18 in 10.0 mi SE 3.5 mph - N/A   Overcast
10:35 PM 29.3 °F - 23.0 °F 77% 30.17 in 10.0 mi Calm Calm - N/A   Overcast
10:55 PM 30.0 °F 26.5 °F 21.9 °F 72% 30.17 in 10.0 mi ESE 3.5 mph - N/A   Overcast
11:15 PM 29.8 °F 26.3 °F 21.7 °F 72% 30.16 in 10.0 mi SE 3.5 mph - N/A   Overcast
11:35 PM 29.3 °F - 22.1 °F 75% 30.15 in 10.0 mi Calm Calm - N/A   Overcast
11:56 PM 28.4 °F - 22.5 °F 78% 30.15 in 10.0 mi Calm Calm - N/A   Overcast